When you browse on this site, cookies collect data to enhance your experience and personalize the content and advertising you see.
Visit our Privacy Policy to learn more. By continuing to use the site, you agree to this use of cookies and data.
  • In Portugal
  • List of Countries
  • For 7 days
  • Water Temperature
  • Weather Map
  • Weather Widgets
  • user-avatar
    Login

    Hourly Weather Markuszowa

    Today, 29 January, Wednesday

    Time Temperature Precipitation Wind Pressure Humidity
    00:00 0°C° 0 mm 3 mps 716 mmHg 88%
    01:00 -1°C° 0 mm 4 mps 715 mmHg 89%
    02:00 -1°C° 0.1 mm 4 mps 716 mmHg 88%
    03:00 -1°C° 0.1 mm 4 mps 716 mmHg 87%
    04:00 -1°C° 0.1 mm 4 mps 716 mmHg 86%
    05:00 -2°C° 0 mm 4 mps 716 mmHg 86%
    06:00 -2°C° 0 mm 4 mps 717 mmHg 85%
    07:00 -2°C° 0 mm 3 mps 717 mmHg 85%
    08:00 -2°C° 0 mm 4 mps 718 mmHg 80%
    09:00 -1°C° 0 mm 5 mps 718 mmHg 75%
    10:00 -2°C° 0 mm 6 mps 718 mmHg 70%
    11:00 -1°C° 0.1 mm 6 mps 718 mmHg 68%
    12:00 -1°C° 0.1 mm 6 mps 718 mmHg 66%
    13:00 0°C° 0 mm 7 mps 718 mmHg 60%
    14:00 -1°C° 0 mm 6 mps 718 mmHg 66%
    15:00 0°C° 0 mm 5 mps 718 mmHg 72%
    16:00 -1°C° 0 mm 4 mps 718 mmHg 77%
    17:00 -1°C° 0 mm 4 mps 719 mmHg 79%
    18:00 -1°C° 0 mm 4 mps 720 mmHg 81%
    19:00 -2°C° 0 mm 4 mps 720 mmHg 83%
    20:00 -2°C° 0.1 mm 4 mps 720 mmHg 85%
    21:00 -2°C° 0.1 mm 4 mps 720 mmHg 88%
    22:00 -2°C° 0.1 mm 4 mps 721 mmHg 90%
    23:00 -2°C° 0 mm 4 mps 721 mmHg 89%

    Tomorrow, 30 January, Thursday

    Time Temperature Precipitation Wind Pressure Humidity
    00:00 -2°C° 0 mm 4 mps 722 mmHg 89%
    01:00 -1°C° 0 mm 3 mps 722 mmHg 89%
    02:00 -2°C° 0.1 mm 4 mps 722 mmHg 89%
    03:00 -2°C° 0.1 mm 4 mps 723 mmHg 90%
    04:00 -2°C° 0.1 mm 4 mps 723 mmHg 91%
    05:00 -2°C° 0.1 mm 4 mps 723 mmHg 91%
    06:00 -2°C° 0.1 mm 4 mps 724 mmHg 91%
    07:00 -2°C° 0.1 mm 5 mps 724 mmHg 91%
    08:00 -1°C° 0 mm 5 mps 725 mmHg 86%
    09:00 -1°C° 0 mm 5 mps 725 mmHg 81%
    10:00 0°C° 0 mm 5 mps 725 mmHg 76%
    11:00 0°C° 0 mm 4 mps 725 mmHg 72%
    12:00 +1°C° 0 mm 4 mps 725 mmHg 69%
    13:00 +1°C° 0 mm 4 mps 725 mmHg 66%
    14:00 +1°C° 0 mm 4 mps 724 mmHg 70%
    15:00 +2°C° 0 mm 3 mps 724 mmHg 74%
    16:00 +1°C° 0 mm 3 mps 724 mmHg 78%
    17:00 +1°C° 0 mm 3 mps 724 mmHg 80%
    18:00 +1°C° 0 mm 3 mps 724 mmHg 83%
    19:00 0°C° 0 mm 3 mps 723 mmHg 85%
    20:00 0°C° 0 mm 3 mps 723 mmHg 86%
    21:00 +1°C° 0 mm 2 mps 723 mmHg 87%
    22:00 +1°C° 0 mm 2 mps 722 mmHg 88%
    23:00 +1°C° 0 mm 2 mps 722 mmHg 87%

    Day after tomorrow, 31 January, Friday

    Time Temperature Precipitation Wind Pressure Humidity
    00:00 +1°C° 0 mm 2 mps 722 mmHg 86%
    01:00 +1°C° 0 mm 2 mps 722 mmHg 85%
    02:00 0°C° 0 mm 3 mps 721 mmHg 83%
    03:00 0°C° 0 mm 3 mps 720 mmHg 81%
    04:00 +1°C° 0 mm 3 mps 720 mmHg 79%
    05:00 +1°C° 0.3 mm 3 mps 719 mmHg 81%
    06:00 +1°C° 0.3 mm 4 mps 719 mmHg 84%
    07:00 +3°C° 0.3 mm 4 mps 718 mmHg 86%
    08:00 +4°C° 0.4 mm 4 mps 718 mmHg 87%
    09:00 +3°C° 0.4 mm 5 mps 718 mmHg 88%
    10:00 +5°C° 0.4 mm 5 mps 718 mmHg 89%
    11:00 +6°C° 0.5 mm 5 mps 718 mmHg 88%
    12:00 +5°C° 0.5 mm 6 mps 718 mmHg 87%
    13:00 +7°C° 0.5 mm 6 mps 719 mmHg 87%
    14:00 +5°C° 0.1 mm 6 mps 719 mmHg 86%
    15:00 +6°C° 0.1 mm 5 mps 720 mmHg 86%
    16:00 +6°C° 0.1 mm 5 mps 720 mmHg 85%
    17:00 +5°C° 0.1 mm 4 mps 721 mmHg 85%
    18:00 +5°C° 0.1 mm 4 mps 722 mmHg 85%
    19:00 +5°C° 0.1 mm 4 mps 722 mmHg 85%
    20:00 +5°C° 0 mm 4 mps 723 mmHg 86%
    21:00 +4°C° 0 mm 3 mps 723 mmHg 87%
    22:00 +4°C° 0 mm 3 mps 723 mmHg 88%
    23:00 +4°C° 0 mm 3 mps 723 mmHg 88%

    1 February, Saturday

    Time Temperature Precipitation Wind Pressure Humidity
    00:00 +4°C° 0 mm 3 mps 723 mmHg 88%
    01:00 +4°C° 0 mm 3 mps 724 mmHg 88%
    02:00 +3°C° 0 mm 3 mps 723 mmHg 88%
    03:00 +4°C° 0 mm 2 mps 723 mmHg 89%
    04:00 +4°C° 0 mm 2 mps 723 mmHg 90%
    05:00 +3°C° 0 mm 3 mps 723 mmHg 89%
    06:00 +3°C° 0 mm 3 mps 723 mmHg 88%
    07:00 +3°C° 0 mm 3 mps 723 mmHg 87%
    08:00 +4°C° 0 mm 3 mps 723 mmHg 85%
    09:00 +5°C° 0 mm 3 mps 723 mmHg 83%
    10:00 +7°C° 0 mm 3 mps 723 mmHg 80%
    11:00 +7°C° 0 mm 4 mps 723 mmHg 78%
    12:00 +8°C° 0 mm 4 mps 723 mmHg 76%
    13:00 +9°C° 0 mm 5 mps 722 mmHg 74%
    14:00 +8°C° 0 mm 4 mps 722 mmHg 77%
    15:00 +8°C° 0 mm 3 mps 722 mmHg 80%
    16:00 +7°C° 0 mm 3 mps 721 mmHg 84%
    17:00 +7°C° 0 mm 3 mps 721 mmHg 83%
    18:00 +7°C° 0 mm 3 mps 720 mmHg 83%
    19:00 +7°C° 0 mm 3 mps 720 mmHg 82%
    20:00 +6°C° 0.2 mm 4 mps 720 mmHg 83%
    21:00 +6°C° 0.2 mm 4 mps 719 mmHg 83%
    22:00 +6°C° 0.2 mm 5 mps 719 mmHg 84%
    23:00 +6°C° 0.3 mm 5 mps 718 mmHg 84%

    2 February, Sunday

    Time Temperature Precipitation Wind Pressure Humidity
    00:00 +7°C° 0.3 mm 5 mps 718 mmHg 84%
    01:00 +7°C° 0.3 mm 5 mps 717 mmHg 84%
    02:00 +5°C° 0.4 mm 7 mps 717 mmHg 84%
    03:00 +4°C° 0.4 mm 8 mps 718 mmHg 85%
    04:00 +3°C° 0.4 mm 10 mps 718 mmHg 86%
    05:00 +2°C° 0.3 mm 9 mps 718 mmHg 83%
    06:00 +1°C° 0.3 mm 8 mps 719 mmHg 81%
    07:00 +2°C° 0.3 mm 7 mps 720 mmHg 79%
    08:00 +2°C° 0.1 mm 7 mps 721 mmHg 79%
    09:00 +2°C° 0.1 mm 7 mps 721 mmHg 79%
    10:00 +2°C° 0.1 mm 7 mps 722 mmHg 78%
    11:00 +2°C° 0 mm 7 mps 722 mmHg 78%
    12:00 +2°C° 0 mm 7 mps 723 mmHg 78%
    13:00 +2°C° 0 mm 7 mps 723 mmHg 78%
    14:00 +2°C° 0 mm 7 mps 723 mmHg 79%
    15:00 +2°C° 0 mm 6 mps 723 mmHg 80%
    16:00 +2°C° 0 mm 6 mps 723 mmHg 81%
    17:00 +1°C° 0 mm 5 mps 723 mmHg 82%
    18:00 +1°C° 0 mm 5 mps 723 mmHg 82%
    19:00 +1°C° 0 mm 4 mps 723 mmHg 82%
    20:00 +1°C° 0 mm 4 mps 723 mmHg 82%
    21:00 +1°C° 0 mm 3 mps 723 mmHg 82%
    22:00 +1°C° 0 mm 3 mps 723 mmHg 82%
    23:00 +1°C° 0 mm 3 mps 723 mmHg 84%

    3 February, Monday

    Time Temperature Precipitation Wind Pressure Humidity
    00:00 +1°C° 0 mm 3 mps 723 mmHg 86%
    01:00 +1°C° 0 mm 3 mps 723 mmHg 87%
    02:00 +2°C° 0.2 mm 2 mps 722 mmHg 89%
    03:00 +3°C° 0.2 mm 2 mps 722 mmHg 91%
    04:00 +3°C° 0.2 mm 2 mps 722 mmHg 94%
    05:00 +3°C° 0.1 mm 2 mps 722 mmHg 94%
    06:00 +3°C° 0.1 mm 3 mps 722 mmHg 94%
    07:00 +3°C° 0.1 mm 3 mps 722 mmHg 94%
    08:00 +3°C° 0.1 mm 3 mps 723 mmHg 93%
    09:00 +3°C° 0.1 mm 3 mps 723 mmHg 92%
    10:00 +3°C° 0.1 mm 4 mps 724 mmHg 90%
    11:00 +3°C° 0.3 mm 3 mps 724 mmHg 91%
    12:00 +3°C° 0.3 mm 3 mps 724 mmHg 92%
    13:00 +3°C° 0.3 mm 3 mps 724 mmHg 93%
    14:00 +3°C° 0.3 mm 3 mps 724 mmHg 93%
    15:00 +3°C° 0.3 mm 3 mps 724 mmHg 93%
    16:00 +3°C° 0.3 mm 3 mps 725 mmHg 93%
    17:00 +3°C° 0.1 mm 3 mps 725 mmHg 92%
    18:00 +4°C° 0.1 mm 2 mps 725 mmHg 92%
    19:00 +4°C° 0.1 mm 2 mps 725 mmHg 92%
    20:00 +4°C° 0 mm 2 mps 725 mmHg 91%
    21:00 +3°C° 0 mm 2 mps 725 mmHg 91%
    22:00 +3°C° 0 mm 2 mps 725 mmHg 91%
    23:00 +3°C° 0 mm 2 mps 724 mmHg 90%
    Show more